UAE29 YSSY-OMDB

Flight info

Callsign UAE29
Flight time N/A
Altitude 34000
Route KADOM A576 AS A587 DOPUK/N0499F360 A587 ONOXA G326 BLI M635 SUMDI/N0493F380 M635 JUNHA DCT IRTAD A464 SJ G579 VJB Y342 AROSO Y513 KALIL Y504 BILIK G582 PUGER P574 ELSAR/N0485F400 P574 PAROK Q899 ITURA M762 VAXAS/N0476F240 M762 MIVEK P574 IMPED
Aircraft A359/H-SDE2E3GHIJ3J4J5LM1ORWXY/LB1D1

Departure

Time 2026-04-21 01:32
Airport Sydney Kingsford Smith International Airport (YSSY)

Arrival

Time N/A
Airport Dubai International Airport (OMDB)
Time Latitude Longitude Altitude Speed Heading
2026-04-21 01:00 -33.93862 151.16961 36 ft 0 kts 254°
2026-04-21 01:22 -33.93856 151.16982 36 ft 4 kts 247°
2026-04-21 01:22 -33.93844 151.17011 35 ft 4 kts 238°
2026-04-21 01:23 -33.93832 151.17038 36 ft 4 kts 265°
2026-04-21 01:23 -33.93836 151.17065 36 ft 4 kts 301°
2026-04-21 01:23 -33.93854 151.17084 36 ft 4 kts 350°
2026-04-21 01:23 -33.93880 151.17086 36 ft 3 kts 350°
2026-04-21 01:24 -33.93883 151.17087 36 ft 0 kts 348°
2026-04-21 01:26 -33.93881 151.17086 36 ft 2 kts 348°
2026-04-21 01:27 -33.93831 151.17074 36 ft 12 kts 348°
2026-04-21 01:27 -33.93747 151.17062 36 ft 12 kts
2026-04-21 01:27 -33.93694 151.17126 35 ft 11 kts 43°
2026-04-21 01:27 -33.93623 151.17134 35 ft 11 kts 349°
2026-04-21 01:28 -33.93545 151.17114 35 ft 12 kts 348°
2026-04-21 01:28 -33.93456 151.17091 36 ft 14 kts 348°
2026-04-21 01:28 -33.93360 151.17061 36 ft 15 kts 337°
2026-04-21 01:28 -33.93278 151.16989 36 ft 15 kts 322°
2026-04-21 01:29 -33.93189 151.16948 36 ft 14 kts 347°
2026-04-21 01:29 -33.93095 151.16922 36 ft 14 kts 347°
2026-04-21 01:29 -33.93002 151.16931 36 ft 13 kts 33°
2026-04-21 01:29 -33.92971 151.17026 36 ft 13 kts 77°
2026-04-21 01:30 -33.92969 151.17039 37 ft 0 kts 77°
2026-04-21 01:30 -33.92966 151.17050 37 ft 3 kts 77°
2026-04-21 01:30 -33.92963 151.17100 37 ft 9 kts 97°
2026-04-21 01:31 -33.93005 151.17172 36 ft 13 kts 151°
2026-04-21 01:31 -33.93042 151.17184 36 ft 0 kts 168°
2026-04-21 01:31 -33.93079 151.17193 37 ft 26 kts 168°
2026-04-21 01:31 -33.93452 151.17293 33 ft 81 kts 167°
2026-04-21 01:32 -33.94153 151.17474 34 ft 126 kts 167°
2026-04-21 01:32 -33.95145 151.17726 45 ft 164 kts 169°
2026-04-21 01:32 -33.96173 151.17965 742 ft 144 kts 171°
2026-04-21 01:32 -33.97215 151.17938 1047 ft 153 kts 186°
2026-04-21 01:33 -33.98331 151.17827 1284 ft 170 kts 185°
2026-04-21 01:33 -33.99572 151.17719 1378 ft 187 kts 184°
2026-04-21 01:33 -34.00929 151.17621 1523 ft 203 kts 184°
2026-04-21 01:33 -34.02399 151.17559 1680 ft 220 kts 178°
2026-04-21 01:34 -34.03961 151.17889 1898 ft 235 kts 166°
2026-04-21 01:34 -34.05557 151.18418 2342 ft 239 kts 165°
2026-04-21 01:34 -34.07138 151.18963 2853 ft 241 kts 165°
2026-04-21 01:34 -34.08757 151.19513 3375 ft 243 kts 165°
2026-04-21 01:35 -34.10391 151.20063 3836 ft 245 kts 165°
2026-04-21 01:35 -34.12043 151.20621 4330 ft 247 kts 165°
2026-04-21 01:35 -34.13700 151.21176 4853 ft 248 kts 165°
2026-04-21 01:35 -34.15370 151.21733 5320 ft 251 kts 165°
2026-04-21 01:36 -34.17066 151.22281 5819 ft 253 kts 167°
2026-04-21 01:36 -34.18820 151.22484 6312 ft 255 kts 184°
2026-04-21 01:36 -34.20543 151.21959 6772 ft 259 kts 203°
2026-04-21 01:36 -34.22007 151.20711 7219 ft 265 kts 222°
2026-04-21 01:37 -34.23257 151.19048 7657 ft 269 kts 226°
2026-04-21 01:37 -34.24442 151.17282 8086 ft 273 kts 231°
2026-04-21 01:37 -34.25289 151.15202 8520 ft 281 kts 251°
2026-04-21 01:37 -34.25441 151.12826 8927 ft 290 kts 274°
2026-04-21 01:38 -34.25023 151.10419 9347 ft 295 kts 282°
2026-04-21 01:38 -34.24424 151.08036 9784 ft 299 kts 289°
2026-04-21 01:38 -34.23330 151.05885 10221 ft 304 kts 311°
2026-04-21 01:38 -34.21615 151.04374 10566 ft 313 kts 335°
2026-04-21 01:39 -34.19492 151.03637 10755 ft 324 kts 349°
2026-04-21 01:39 -34.17244 151.03143 11034 ft 332 kts 350°
2026-04-21 01:39 -34.14995 151.02659 11437 ft 334 kts 349°
2026-04-21 01:39 -34.12707 151.02148 11868 ft 336 kts 349°
2026-04-21 01:40 -34.10420 151.01439 12115 ft 344 kts 338°
2026-04-21 01:40 -34.08333 150.99979 12264 ft 352 kts 317°
2026-04-21 01:40 -34.06783 150.97677 12399 ft 358 kts 299°
2026-04-21 01:40 -34.05616 150.95000 12573 ft 365 kts 292°
2026-04-21 01:41 -34.04642 150.92144 12726 ft 373 kts 288°
2026-04-21 01:41 -34.03742 150.89172 12884 ft 382 kts 287°
2026-04-21 01:41 -34.02855 150.86162 13022 ft 390 kts 287°
2026-04-21 01:41 -34.01918 150.83059 13183 ft 398 kts 288°
2026-04-21 01:42 -34.00935 150.79918 13407 ft 403 kts 288°
2026-04-21 01:42 -33.99915 150.76754 13702 ft 406 kts 289°
2026-04-21 01:42 -33.98876 150.73583 14024 ft 408 kts 289°
2026-04-21 01:42 -33.97823 150.70398 14331 ft 410 kts 289°
2026-04-21 01:43 -33.96761 150.67197 14666 ft 412 kts 289°
2026-04-21 01:43 -33.95695 150.63988 14980 ft 414 kts 289°
2026-04-21 01:43 -33.94624 150.60758 15296 ft 416 kts 289°
2026-04-21 01:43 -33.93549 150.57516 15600 ft 418 kts 289°
2026-04-21 01:44 -33.92467 150.54257 15896 ft 420 kts 289°
2026-04-21 01:44 -33.91379 150.50986 16214 ft 422 kts 289°
2026-04-21 01:44 -33.90303 150.47740 16512 ft 424 kts 289°
2026-04-21 01:44 -33.89208 150.44438 16802 ft 426 kts 289°
2026-04-21 01:45 -33.88105 150.41123 17108 ft 427 kts 289°
2026-04-21 01:45 -33.86996 150.37795 17400 ft 429 kts 289°
2026-04-21 01:45 -33.85882 150.34460 17693 ft 431 kts 289°
2026-04-21 01:45 -33.84763 150.31110 17976 ft 433 kts 289°
2026-04-21 01:46 -33.83637 150.27743 18250 ft 435 kts 289°
2026-04-21 01:46 -33.82504 150.24359 18515 ft 437 kts 289°
2026-04-21 01:46 -33.81365 150.20963 18792 ft 439 kts 289°
2026-04-21 01:46 -33.80236 150.17600 19049 ft 440 kts 289°
2026-04-21 01:47 -33.79085 150.14178 19310 ft 443 kts 289°
2026-04-21 01:47 -33.77928 150.10739 19579 ft 445 kts 289°
2026-04-21 01:47 -33.76765 150.07290 19844 ft 446 kts 289°
2026-04-21 01:47 -33.75598 150.03828 20087 ft 448 kts 289°
2026-04-21 01:48 -33.74427 150.00354 20316 ft 450 kts 288°
2026-04-21 01:48 -33.73253 149.96868 20537 ft 452 kts 289°
2026-04-21 01:48 -33.72071 149.93364 20770 ft 453 kts 288°
2026-04-21 01:48 -33.70880 149.89844 21002 ft 455 kts 288°
2026-04-21 01:49 -33.69684 149.86316 21253 ft 456 kts 288°
2026-04-21 01:49 -33.68503 149.82834 21458 ft 457 kts 288°
2026-04-21 01:49 -33.67299 149.79288 21621 ft 460 kts 288°
2026-04-21 01:49 -33.66095 149.75728 21842 ft 462 kts 288°
2026-04-21 01:50 -33.64880 149.72156 22087 ft 463 kts 288°
2026-04-21 01:50 -33.63654 149.68570 22319 ft 464 kts 288°
2026-04-21 01:50 -33.62425 149.64984 22524 ft 466 kts 288°
2026-04-21 01:50 -33.61189 149.61378 22723 ft 468 kts 288°
2026-04-21 01:51 -33.59952 149.57764 22904 ft 469 kts 288°
2026-04-21 01:51 -33.58713 149.54144 23087 ft 471 kts 288°
2026-04-21 01:51 -33.57467 149.50504 23293 ft 472 kts 288°
2026-04-21 01:51 -33.56234 149.46911 23500 ft 473 kts 288°
2026-04-21 01:52 -33.54980 149.43259 23673 ft 475 kts 288°
2026-04-21 01:52 -33.52455 149.35914 24037 ft 478 kts 288°
2026-04-21 01:52 -33.51187 149.32229 24243 ft 479 kts 288°
2026-04-21 01:53 -33.49910 149.28528 24424 ft 480 kts 288°
2026-04-21 01:53 -33.48632 149.24828 24610 ft 482 kts 288°
2026-04-21 01:53 -33.47348 149.21122 24801 ft 483 kts 288°
2026-04-21 01:53 -33.46058 149.17397 24980 ft 484 kts 288°
2026-04-21 01:54 -33.44784 149.13725 25170 ft 485 kts 288°
2026-04-21 01:54 -33.43487 149.09987 25353 ft 486 kts 288°
2026-04-21 01:54 -33.42187 149.06247 25580 ft 487 kts 288°
2026-04-21 01:54 -33.40882 149.02495 25772 ft 489 kts 288°
2026-04-21 01:55 -33.39575 148.98741 25966 ft 490 kts 288°
2026-04-21 01:55 -33.38261 148.94981 26151 ft 491 kts 288°
2026-04-21 01:55 -33.36939 148.91199 26350 ft 492 kts 288°
2026-04-21 01:55 -33.35622 148.87426 26525 ft 493 kts 288°
2026-04-21 01:56 -33.34295 148.83631 26695 ft 495 kts 288°
2026-04-21 01:56 -33.32963 148.79835 26898 ft 496 kts 289°
2026-04-21 01:56 -33.31628 148.76035 27121 ft 496 kts 288°
2026-04-21 01:56 -33.30307 148.72274 27291 ft 498 kts 288°
2026-04-21 01:57 -33.28966 148.68453 27468 ft 499 kts 288°
2026-04-21 01:57 -33.27621 148.64626 27684 ft 500 kts 288°
2026-04-21 01:57 -33.26271 148.60794 27867 ft 501 kts 288°
2026-04-21 01:57 -33.24914 148.56953 28026 ft 502 kts 288°
2026-04-21 01:58 -33.23554 148.53105 28204 ft 504 kts 288°
2026-04-21 01:58 -33.22191 148.49251 28383 ft 504 kts 289°
2026-04-21 01:58 -33.20822 148.45385 28568 ft 505 kts 288°
2026-04-21 01:58 -33.19451 148.41522 28724 ft 506 kts 288°
2026-04-21 01:59 -33.18075 148.37642 28868 ft 508 kts 288°
2026-04-21 01:59 -33.16698 148.33762 29016 ft 509 kts 288°
2026-04-21 01:59 -33.15334 148.29924 29153 ft 510 kts 288°
2026-04-21 01:59 -33.13935 148.26041 29341 ft 510 kts 290°
2026-04-21 02:00 -33.12256 148.22292 29565 ft 513 kts 296°
2026-04-21 02:00 -33.10400 148.18662 29779 ft 513 kts 297°
2026-04-21 02:00 -33.08488 148.15062 29969 ft 514 kts 298°
2026-04-21 02:00 -33.06548 148.11483 30149 ft 514 kts 298°
2026-04-21 02:01 -33.04597 148.07915 30353 ft 514 kts 298°
2026-04-21 02:01 -33.02648 148.04359 30598 ft 512 kts 298°
2026-04-21 02:01 -33.00705 148.00811 30847 ft 511 kts 298°
2026-04-21 02:01 -32.98794 147.97312 31107 ft 509 kts 298°
2026-04-21 02:02 -32.96873 147.93794 31475 ft 505 kts 298°
2026-04-21 02:02 -32.94963 147.90293 31738 ft 503 kts 298°
2026-04-21 02:02 -32.93058 147.86803 31931 ft 503 kts 298°
2026-04-21 02:02 -32.91155 147.83315 32150 ft 502 kts 298°
2026-04-21 02:03 -32.89254 147.79836 32333 ft 501 kts 298°
2026-04-21 02:03 -32.87355 147.76364 32540 ft 500 kts 298°
2026-04-21 02:03 -32.85457 147.72900 32704 ft 500 kts 298°
2026-04-21 02:03 -32.83561 147.69440 32899 ft 499 kts 298°
2026-04-21 02:04 -32.81667 147.65986 33060 ft 498 kts 298°
2026-04-21 02:04 -32.79774 147.62539 33248 ft 497 kts 298°
2026-04-21 02:04 -32.77913 147.59154 33454 ft 496 kts 298°
2026-04-21 02:04 -32.76027 147.55727 33626 ft 495 kts 298°
2026-04-21 02:05 -32.74143 147.52307 33801 ft 494 kts 298°
2026-04-21 02:05 -32.72261 147.48892 33968 ft 493 kts 298°
2026-04-21 02:05 -32.70384 147.45493 34145 ft 493 kts 298°
2026-04-21 02:05 -32.68508 147.42096 34291 ft 492 kts 298°
2026-04-21 02:06 -32.66626 147.38691 34353 ft 494 kts 298°
2026-04-21 02:06 -32.62833 147.31829 34355 ft 500 kts 298°
2026-04-21 02:07 -32.59043 147.24999 34356 ft 499 kts 298°
2026-04-21 02:07 -32.55239 147.18153 34359 ft 498 kts 298°
2026-04-21 02:08 -32.51421 147.11292 34361 ft 498 kts 298°
2026-04-21 02:08 -32.47608 147.04455 34355 ft 497 kts 298°
2026-04-21 02:09 -32.43791 146.97628 34361 ft 497 kts 298°
2026-04-21 02:09 -32.39974 146.90805 34361 ft 497 kts 298°
2026-04-21 02:10 -32.36187 146.84047 34353 ft 496 kts 298°
2026-04-21 02:10 -32.32365 146.77240 34358 ft 496 kts 299°
2026-04-21 02:11 -32.28547 146.70454 34359 ft 496 kts 299°
2026-04-21 02:11 -32.24727 146.63677 34357 ft 496 kts 299°
2026-04-21 02:12 -32.20927 146.56949 34349 ft 495 kts 299°
2026-04-21 02:12 -32.17107 146.50194 34340 ft 495 kts 299°
2026-04-21 02:13 -32.13275 146.43430 34339 ft 495 kts 299°
2026-04-21 02:13 -32.09446 146.36687 34339 ft 495 kts 299°
2026-04-21 02:14 -32.05613 146.29951 34340 ft 494 kts 299°
2026-04-21 02:14 -32.01778 146.23219 34339 ft 494 kts 299°
2026-04-21 02:15 -31.97971 146.16544 34339 ft 494 kts 299°
2026-04-21 02:15 -31.94129 146.09820 34340 ft 495 kts 299°
2026-04-21 02:16 -31.90285 146.03109 34339 ft 495 kts 299°
2026-04-21 02:16 -31.87087 145.97535 34340 ft 494 kts 299°
2026-04-21 02:17 -31.83236 145.90833 34339 ft 495 kts 299°
2026-04-21 02:17 -31.78761 145.83058 34339 ft 495 kts 299°
2026-04-21 02:18 -31.75548 145.77486 34340 ft 494 kts 299°
2026-04-21 02:18 -31.71690 145.70807 34340 ft 494 kts 299°
2026-04-21 02:19 -31.67829 145.64129 34339 ft 494 kts 300°
2026-04-21 02:19 -31.63963 145.57458 34339 ft 494 kts 300°
2026-04-21 02:20 -31.60097 145.50800 34339 ft 494 kts 300°
2026-04-21 02:20 -31.56256 145.44196 34328 ft 494 kts 300°
2026-04-21 02:21 -31.52383 145.37547 34329 ft 494 kts 300°
2026-04-21 02:21 -31.48505 145.30902 34331 ft 494 kts 300°
2026-04-21 02:22 -31.44631 145.24274 34330 ft 493 kts 300°
2026-04-21 02:22 -31.40751 145.17647 34328 ft 493 kts 300°
2026-04-21 02:23 -31.36869 145.11028 34331 ft 493 kts 300°
2026-04-21 02:23 -31.33013 145.04464 34329 ft 493 kts 300°
2026-04-21 02:24 -31.29128 144.97861 34333 ft 492 kts 300°
2026-04-21 02:24 -31.25243 144.91275 34327 ft 492 kts 301°
2026-04-21 02:25 -31.21356 144.84691 34332 ft 492 kts 301°
2026-04-21 02:25 -31.17468 144.78117 34323 ft 492 kts 301°
2026-04-21 02:26 -31.13574 144.71545 34298 ft 492 kts 301°
2026-04-21 02:26 -31.09709 144.65029 34300 ft 492 kts 301°
2026-04-21 02:27 -31.05810 144.58473 34313 ft 491 kts 301°
2026-04-21 02:27 -31.01912 144.51929 34310 ft 491 kts 301°
2026-04-21 02:28 -30.98013 144.45390 34296 ft 491 kts 301°
2026-04-21 02:28 -30.94131 144.38896 34289 ft 491 kts 301°
2026-04-21 02:29 -30.90226 144.32369 34283 ft 491 kts 301°
2026-04-21 02:29 -30.86312 144.25838 34283 ft 492 kts 301°
2026-04-21 02:30 -30.82400 144.19322 34288 ft 491 kts 301°
2026-04-21 02:30 -30.78483 144.12811 34284 ft 491 kts 301°
2026-04-21 02:31 -30.74566 144.06307 34283 ft 491 kts 301°
2026-04-21 02:31 -30.70672 143.99852 34284 ft 491 kts 301°
2026-04-21 02:32 -30.66744 143.93352 34282 ft 491 kts 301°
2026-04-21 02:32 -30.62815 143.86866 34277 ft 491 kts 301°
2026-04-21 02:33 -30.58888 143.80390 34274 ft 491 kts 301°
2026-04-21 02:33 -30.54960 143.73920 34274 ft 490 kts 301°
2026-04-21 02:34 -30.51052 143.67498 34277 ft 491 kts 301°
2026-04-21 02:34 -30.47112 143.61029 34275 ft 491 kts 301°
2026-04-21 02:35 -30.43166 143.54562 34275 ft 491 kts 301°
2026-04-21 02:35 -30.39217 143.48104 34277 ft 491 kts 301°
2026-04-21 02:36 -30.35298 143.41703 34285 ft 490 kts 301°
2026-04-21 02:36 -30.31345 143.35257 34283 ft 491 kts 301°
2026-04-21 02:37 -30.27388 143.28815 34283 ft 491 kts 301°
2026-04-21 02:37 -30.23430 143.22382 34283 ft 491 kts 301°
2026-04-21 02:38 -30.19467 143.15950 34283 ft 491 kts 301°
2026-04-21 02:38 -30.15525 143.09566 34279 ft 491 kts 301°
2026-04-21 02:39 -30.11552 143.03142 34275 ft 492 kts 301°
2026-04-21 02:39 -30.07572 142.96721 34274 ft 491 kts 301°
2026-04-21 02:40 -30.03593 142.90305 34277 ft 491 kts 301°
2026-04-21 02:40 -29.99610 142.83901 34277 ft 491 kts 301°
2026-04-21 02:41 -29.95647 142.77536 34276 ft 493 kts 300°
2026-04-21 02:41 -29.91642 142.71112 34275 ft 494 kts 300°
2026-04-21 02:42 -29.87624 142.64691 34275 ft 494 kts 300°
2026-04-21 02:42 -29.83609 142.58280 34275 ft 494 kts 300°
2026-04-21 02:43 -29.79615 142.51912 34275 ft 493 kts 300°
2026-04-21 02:43 -29.75597 142.45507 34276 ft 494 kts 300°
2026-04-21 02:44 -29.71576 142.39111 34274 ft 493 kts 300°
2026-04-21 02:44 -29.67550 142.32717 34267 ft 493 kts 300°
2026-04-21 02:45 -29.63528 142.26341 34265 ft 494 kts 300°
2026-04-21 02:45 -29.59487 142.19946 34266 ft 493 kts 300°
2026-04-21 02:46 -29.55478 142.13615 34265 ft 493 kts 300°
2026-04-21 02:46 -29.51441 142.07245 34267 ft 494 kts 300°
2026-04-21 02:47 -29.47397 142.00873 34265 ft 494 kts 300°
2026-04-21 02:47 -29.43343 141.94500 34266 ft 494 kts 300°